Torna al catalogo

METEOR 2-5 DEB

AttivoPO
NORAD 39603·DEBRIS·🇷🇺 Russia

Lanciato Oct 31, 1979 da Plesetsk Cosmodrome

Loading…

Prossimi Passaggi (prossime 24 ore)

TLE

In scadenzaSource: Space-Track

Epoca: Sep 7, 2026, 19:18 UTC

1 39603U 79095CE  26250.80464515  .00002609  00000-0  91862-3 0  9995
2 39603  81.1988  78.9354 0010868 197.0439 163.0382 14.34610187655318

Traccia METEOR 2-5 DEB in tempo reale con AllMySat

Download on the App Store